Phoenix-Mesa Gateway Airport, AZ

6:43 PM MST on July 27, 2017 (GMT -0700)
Phoenix-Mesa Gateway Airport

Weather History for KIWA - February, 2012

Change the Weather History Date:

Wednesday, February 1, 2012

  Actual Average Record
Temperature  
Mean Temperature 60 °F -  
Max Temperature 77 °F 65 °F 84 °F (2003)
Min Temperature 42 °F 41 °F 26 °F (2002)
Degree Days  
Heating Degree Days 6    
Growing Degree Days 10 (Base 50)    
Moisture  
Dew Point 30 °F    
Average Humidity 43    
Maximum Humidity 57    
Minimum Humidity 17    
Precipitation  
Precipitation 0.00 in - - ()
Sea Level Pressure  
Sea Level Pressure 30.08 in    
Wind  
Wind Speed 5 mph (ESE)    
Max Wind Speed 9 mph    
Max Gust Speed -    
Visibility 12 miles    
Events      
Averages and records for this station are not official NWS values.
T = Trace of Precipitation, MM = Missing Value Source: NWS Daily Summary

Daily Weather History Graph

Daily Weather History Graph

Search for Another Location

Airport or City:

Trip Planner

Search our weather history database for the weather conditions in past years. The results will help you decide how hot, cold, wet, or windy it might be!

Date:

Astronomy

Feb. 01, 2012 Rise Set
Actual Time 7:22 AM MST 5:58 PM MST
Civil Twilight 6:56 AM MST 6:24 PM MST
Nautical Twilight 6:27 AM MST 6:53 PM MST
Astronomical Twilight 5:57 AM MST 7:23 PM MST
Moon 12:33 PM MST (2/1) 2:07 AM MST (2/1)
Length of Visible Light 11h 27m
Length of Day
10h 35m
Waxing Gibbous, 65% of the Moon is Illuminated
Feb 1
Waxing Gibbous
Feb 7
Full
Feb 14
Last Quarter
Feb 21
New
Feb 29
First Quarter

Hourly Weather History & Observations

Time (MST) Temp. Windchill Dew Point Humidity Pressure Visibility Wind Dir Wind Speed Gust Speed Precip Events Conditions
12:15 AM 50.0 °F - 30.2 °F 47% 30.14 in 10.0 mi SE 5.8 mph - N/A   Clear
12:35 AM 48.2 °F - 30.2 °F 50% 30.14 in 10.0 mi SE 5.8 mph - N/A   Clear
12:55 AM 46.4 °F 44.3 °F 30.2 °F 53% 30.15 in 10.0 mi SE 4.6 mph - N/A   Clear
1:15 AM 46.4 °F 42.9 °F 30.2 °F 53% 30.15 in 10.0 mi SE 6.9 mph - N/A   Clear
1:35 AM 46.4 °F 41.9 °F 30.2 °F 53% 30.15 in 10.0 mi SE 9.2 mph - N/A   Clear
1:55 AM 48.2 °F - 30.2 °F 50% 30.15 in 10.0 mi SE 8.1 mph - N/A   Clear
2:15 AM 46.4 °F 42.4 °F 32.0 °F 57% 30.15 in 10.0 mi SSE 8.1 mph - N/A   Clear
2:35 AM 46.4 °F 44.3 °F 32.0 °F 57% 30.15 in 10.0 mi ESE 4.6 mph - N/A   Clear
2:55 AM 46.4 °F 43.5 °F 30.2 °F 53% 30.15 in 10.0 mi ESE 5.8 mph - N/A   Clear
3:15 AM 44.6 °F 42.2 °F 30.2 °F 57% 30.15 in 10.0 mi ESE 4.6 mph - N/A   Clear
3:35 AM 44.6 °F 41.4 °F 30.2 °F 57% 30.15 in 10.0 mi East 5.8 mph - N/A   Clear
3:55 AM 44.6 °F 40.2 °F 28.4 °F 53% 30.14 in 10.0 mi East 8.1 mph - N/A   Clear
4:15 AM 46.4 °F 42.4 °F 28.4 °F 50% 30.15 in 10.0 mi ESE 8.1 mph - N/A   Clear
4:35 AM 46.4 °F 42.4 °F 28.4 °F 50% 30.15 in 10.0 mi ESE 8.1 mph - N/A   Clear
4:55 AM 44.6 °F 41.4 °F 30.2 °F 57% 30.16 in 10.0 mi ESE 5.8 mph - N/A   Clear
5:15 AM 44.6 °F 41.4 °F 30.2 °F 57% 30.16 in 10.0 mi ESE 5.8 mph - N/A   Clear
5:47 AM 44.6 °F 41.4 °F 28.4 °F 53% 30.15 in 20.0 mi ESE 5.8 mph - N/A   Partly Cloudy
6:47 AM 44.6 °F 42.2 °F 28.4 °F 53% 30.16 in 20.0 mi East 4.6 mph - N/A   Partly Cloudy
7:47 AM 42.8 °F 40.1 °F 28.4 °F 57% 30.17 in 35.0 mi SE 4.6 mph - N/A   Scattered Clouds
8:47 AM 50.0 °F - 30.2 °F 47% 30.17 in 35.0 mi Calm Calm - N/A   Scattered Clouds
9:47 AM 55.4 °F - 32.0 °F 41% 30.19 in 35.0 mi Calm Calm - N/A   Partly Cloudy
10:47 AM 60.8 °F - 28.4 °F 29% 30.17 in 35.0 mi Variable 3.5 mph - N/A   Partly Cloudy
11:47 AM 66.2 °F - 28.4 °F 24% 30.15 in 35.0 mi Calm Calm - N/A   Scattered Clouds
1:50 PM 69.8 °F - 28.4 °F 21% 30.08 in 35.0 mi Variable 4.6 mph - N/A   Mostly Cloudy
2:47 PM 73.4 °F - 30.2 °F 20% 30.05 in 35.0 mi Calm Calm - N/A   Mostly Cloudy
3:47 PM 77.0 °F - 28.4 °F 17% 30.03 in 35.0 mi North 3.5 mph - N/A   Mostly Cloudy
4:47 PM 77.0 °F - 28.4 °F 17% 30.02 in 35.0 mi WNW 4.6 mph - N/A   Mostly Cloudy
6:47 PM 69.8 °F - 28.4 °F 21% 29.99 in 20.0 mi Calm Calm - N/A   Mostly Cloudy
7:47 PM 62.6 °F - 33.8 °F 34% 29.98 in 20.0 mi Variable 3.5 mph - N/A   Mostly Cloudy
7:55 PM 60.8 °F - 32.0 °F 34% 29.98 in 10.0 mi Calm Calm - N/A   Clear
8:15 PM 60.8 °F - 32.0 °F 34% 29.99 in 10.0 mi Calm Calm - N/A   Clear
8:35 PM 57.2 °F - 32.0 °F 38% 29.99 in 10.0 mi Calm Calm - N/A   Clear
8:47 PM 55.4 °F - 28.4 °F 36% 29.98 in 20.0 mi East 4.6 mph - N/A   Mostly Cloudy
8:55 PM 55.4 °F - 30.2 °F 38% 29.99 in 10.0 mi East 4.6 mph - N/A   Clear
9:15 PM 55.4 °F - 30.2 °F 38% 29.99 in 10.0 mi ENE 3.5 mph - N/A   Clear
9:35 PM 55.4 °F - 30.2 °F 38% 29.99 in 10.0 mi East 5.8 mph - N/A   Clear
9:55 PM 55.4 °F - 32.0 °F 41% 29.99 in 10.0 mi East 4.6 mph - N/A   Clear
10:15 PM 53.6 °F - 30.2 °F 41% 29.99 in 10.0 mi SE 5.8 mph - N/A   Clear
10:35 PM 50.0 °F - 32.0 °F 50% 29.98 in 10.0 mi SSE 8.1 mph - N/A   Clear
10:55 PM 50.0 °F - 32.0 °F 50% 29.98 in 10.0 mi ESE 5.8 mph - N/A   Clear
11:15 PM 50.0 °F - 30.2 °F 47% 29.98 in 10.0 mi ESE 5.8 mph - N/A   Clear
11:35 PM 50.0 °F - 30.2 °F 47% 29.99 in 10.0 mi ESE 5.8 mph - N/A   Clear
11:55 PM 48.2 °F - 30.2 °F 50% 29.99 in 10.0 mi ESE 5.8 mph - N/A   Clear